Regional Weather Roundup
Issued by NWS

Home | Current Version | Previous Version | Graphics & Text | Print | Product List | Glossary On
Versions: 1 2 3 4 5 6 7 8 9 10 11 12 13 14 15 16 17 18 19 20 21 22 23 24 25 26 27 28 29 30 31 32 33 34 35 36 37 38 39 40 41 42 43 44 45 46 47 48 49 50
748
ASUS44 KJAN 280003
RWRMS

MISSISSIPPI HOURLY WEATHER ROUNDUP
NATIONAL WEATHER SERVICE JACKSON MS
700 PM CDT FRI MAR 27 2015

NOTE: "FAIR: INDICATES FEW OR NO CLOUDS BELOW 12,000 FEET WITH NO
SIGNIFICANT WEATHER AND/OR OBSTRUCTIONS TO VISIBILITY.

MSZ001>002-007>008-010>013-018>021-025>028-034>036-280100-
NORTHWEST MISSISSIPPI

CITY           SKY/WX    TMP DP  RH WIND       PRES   REMARKS
CLARKSDALE     FAIR      48  39  71 N9        30.14S
CLEVELAND      FAIR      49  40  72 N9        30.13R
GREENWOOD      CLEAR     48  34  58 N9        30.13R
6HR MIN TEMP:  48; 6HR MAX TEMP:  57; 6HR PCP: TRACE;

GREENVILLE     CLEAR     51  35  54 N13       30.12R
6HR MIN TEMP:  51; 6HR MAX TEMP:  59;

OLIVE BRANCH   PTCLDY    43  34  70 N10       30.12R
OXFORD         FAIR      45  36  70 NW7       30.12S
TUNICA         CLEAR     45  36  70 N10       30.14R
$$

MSZ003>006-009-014>017-022>024-029>033-037>039-280100-
NORTHEAST MISSISSIPPI

CITY           SKY/WX    TMP DP  RH WIND       PRES   REMARKS
COLUMBUS AFB   PTCLDY    46  35  66 NW10      30.09R
6HR MIN TEMP:  46; 6HR MAX TEMP:  57; 6HR PCP: TRACE;

CORINTH        MOCLDY    45  30  57 N15G24    30.09R
STARKVILLE     CLOUDY    45  37  76 N9        30.11R
TUPELO         PTCLDY    45  37  73 NW6       30.09R
6HR MIN TEMP:  43; 6HR MAX TEMP:  53; 6HR PCP:  0.05;

$$

MSZ040-058-280100-
CENTRAL MISSISSIPPI

CITY           SKY/WX    TMP DP  RH WIND       PRES   REMARKS
JACKSON INTL   PTCLDY    56  33  42 NW14      30.08R
6HR MIN TEMP:  56; 6HR MAX TEMP:  63;

JACKSON HAWKNS PTCLDY    55  34  45 N7G18     30.09R
6HR MIN TEMP:  55; 6HR MAX TEMP:  61;

MERIDIAN KEY   PTCLDY    53  33  46 N9        30.07R
6HR MIN TEMP:  53; 6HR MAX TEMP:  62;

MERIDIAN NAS   NOT AVBL
RAYMOND        FAIR      55  50  82 N6G13     30.08S
VICKSBURG      PTCLDY    55  38  52 NE13      30.10R
6HR MIN TEMP:  55; 6HR MAX TEMP:  62; 6HR PCP: TRACE;

$$

MSZ059>079-280100-
SOUTH MISSISSIPPI

CITY           SKY/WX    TMP DP  RH WIND       PRES   REMARKS
BROOKHAVEN     FAIR      57  43  58 N9        30.08R
HATTIESBURG    MOCLDY    60  34  37 N12G22    30.05R
6HR MIN TEMP:  60; 6HR MAX TEMP:  67;

MCCOMB         CLEAR     62  39  42 N9        30.04R
6HR MIN TEMP:  61; 6HR MAX TEMP:  67;

NATCHEZ        CLEAR     59  37  44 N13G20    30.07R
6HR MIN TEMP:  57; 6HR MAX TEMP:  68;

PINE BELT      PTCLDY    57  32  38 N14       30.07R
6HR MIN TEMP:  57; 6HR MAX TEMP:  66;

$$

MSZ080>082-280100-
COASTAL MISSISSIPPI

CITY           SKY/WX    TMP DP  RH WIND       PRES   REMARKS
BAY ST LOUIS   CLEAR    N/A N/A N/A NW7       30.01R
BILOXI         NOT AVBL
PASCAGOULA     CLEAR     63  35  35 N7        30.00R
6HR MIN TEMP:  63; 6HR MAX TEMP:  70;

GULFPORT       CLEAR     65  36  34 N15       30.00R
6HR MIN TEMP:  65; 6HR MAX TEMP:  70;

$$



USA.gov is the U.S. government's official web portal to all federal, state and local government web resources and services.